Preview of NWS' New Version of Forecast
This preview is not operational and should not be used for support decisions.

Regional Weather Roundup (RWR)

Issued by National Weather Service (NWS)

                            
000
ASUS45 KBOU 191610
RWRCO 

WEATHER ROUNDUP FOR COLORADO
NATIONAL WEATHER SERVICE DENVER/BOULDER CO
1000 AM MDT WED JUN 19 2019

NOTE: "FAIR" INDICATES FEW OR NO CLOUDS BELOW 12000 FEET WITH NO
SIGNIFICANT WEATHER AND/OR OBSTRUCTIONS TO VISIBILITY.

COZ001>005-013-030-031-191700-
...NORTHWEST COLORADO...
  
CITY           SKY/WX    TMP DP  RH WIND       PRES   REMARKS
CRAIG          FAIR      63  49  60 N6        30.10F                  
HAYDEN         FAIR      60  46  59 VRB6      30.13F                  
MEEKER         FAIR      61  48  62 E5        30.12F                  
RANGELY        FAIR      63  52  67 CALM      30.06F                  
RABBIT EARS PA NOT AVBL                                               
STEAMBOAT SPGS FAIR      56  47  73 CALM      30.14S                  
WALDEN         CLOUDY    55  41  58 W9        30.17F                  
$$

COZ006>008-011-191700-
...WEST CENTRAL VALLEYS...
  
CITY           SKY/WX    TMP DP  RH WIND       PRES   REMARKS
GRAND JUNCTION FAIR      68  48  48 SE12      30.07F                  
MONTROSE       FAIR      63  47  55 E3        30.15F                  
EAGLE          FAIR      61  45  55 N3        30.17F                  
RIFLE          FAIR      62  50  64 NE5       30.12F                  
DELTA          FAIR      69  44  40 E5        30.12F                  
NUCLA          FAIR      63  46  55 CALM      30.18F                  
$$

COZ017>023-064>068-191700-
...SOUTHWEST COLORADO...
  
CITY           SKY/WX    TMP DP  RH WIND       PRES   REMARKS
DURANGO        FAIR      65  42  43 E3        30.17F                  
CORTEZ         FAIR      71  43  36 CALM      30.14F                  
PAGOSA SPRINGS FAIR      60  39  45 S5        30.24F                  
TELLURIDE      FAIR      57  37  47 W8        30.33S                  
WOLF CREEK PAS FAIR      43  32  65 S7        30.49F                  
$$

COZ009-010-012-014-032>034-037-058>063-191700-
...CENTRAL COLORADO...
  
CITY           SKY/WX    TMP DP  RH WIND       PRES   REMARKS
ASPEN          FAIR      59  43  55 N5        30.20F                  
BUENA VISTA    FAIR      59  37  44 SE7       30.19F                  
COPPER MTN     FOG       39  36  87 W20G25    30.39S VSB 1/4          
BERTHOUD PASS  CLOUDY    32  23  69 NW26G36   30.35R WCI  18          
COTTONWOOD PAS FAIR      54  32  43 W5G17     30.29S                  
GUNNISON       FAIR      54  44  69 VRB3      30.24F                  
GRANBY         CLOUDY    53  44  71 W9        30.20F                  
KREMMLING      NOT AVBL                                               
LEADVILLE      FAIR      51  37  58 NW16G25   30.28F                  
MONARCH PASS   FOG       37  36  93 MISG      30.51S VSB<1/4          
SALIDA         FAIR      65  39  38 N6        30.23F                  
SUNLIGHT       FAIR      45  37  76 CALM      30.39S                  
WILKERSON PASS FAIR      46  32  57 W6        30.37F                  
$$

COZ069>075-191700-
...SAN LUIS VALLEY/SANGRE DE CRISTO MOUNTAINS...
  
CITY           SKY/WX    TMP DP  RH WIND       PRES   REMARKS
ALAMOSA        FAIR      60  40  47 VRB5      30.20F                  
DEL NORTE      FAIR      58  41  52 E3        30.22F                  
LA VETA PASS   NOT AVBL                                               
SAGUACHE       FAIR      61  41  48 CALM      30.21F                  
$$

COZ035-036-038>040-191700-
...NORTHERN COLORADO FRONT RANGE...
  
CITY           SKY/WX    TMP DP  RH WIND       PRES   REMARKS
DENVER INTL AP FAIR      68  47  46 SW9       29.99F                  
AURORA         MOSUNNY   67  47  48 SW9       30.01F                  
FRONT RANGE AP MOSUNNY   68  48  49 SW13G18   30.01F                  
ERIE MUNI ARPT FAIR      73  44  35 SW3       30.01F                  
BOULDER MUN AP FAIR      73  37  27 W18G24    29.97F                  
CENTENNIAL     PTSUNNY   67  44  43 SW6       30.02F                  
BROOMFIELD     MOSUNNY   72  41  33 VRB6      30.01F                  
FORT COLLINS     N/A     68  50  52 S8        29.97F                  
LONGMONT       FAIR      74  46  37 SE5       29.97F                  
$$

COZ041-046-047-076>085-087-088-191700-
...PIKES PEAK/PALMER DIVIDE AND SOUTHERN FOOTHILLS...
  
CITY           SKY/WX    TMP DP  RH WIND       PRES   REMARKS
COLO. SPRINGS  FAIR      67  40  37 W7        30.07F                  
A. F. ACADEMY  MOSUNNY   65  42  43 E3        30.05F                  
SCHRIEVER AFB  NOT AVBL                                               
CHEYENNE MTN   NOT AVBL                                               
ELLICOTT         N/A    N/A N/A N/A N9        30.05F                  
FALCON         FAIR      65  39  39 W12G21    30.10F                  
FORT CARSON    FAIR      66  46  48 CALM      30.03F                  
LIMON          FAIR      63  50  62 W9        30.00F                  
MONUMENT HILL  FAIR      61  45  55 SW7       30.11F                  
CANON CITY     FAIR      73  43  33 W9G22     30.02F                  
WALSENBURG     NOT AVBL                                               
TRINIDAD       FAIR      74  40  29 NW14G26   30.04F                  
$$

COZ042>045-048>051-090-091-191700-
...NORTHEAST COLORADO...
  
CITY           SKY/WX    TMP DP  RH WIND       PRES   REMARKS
GREELEY ARPT   FAIR      69  52  54 SW10      29.96F                  
AKRON          FAIR      66  51  58 NW16      29.94F                  
BURLINGTON     FAIR      69  54  58 NW18      29.92F                  
WRAY           CLOUDY    66  54  63 NW12      29.90F                  
YUMA           FAIR      63  39  42 NW14      29.93F                  
STERLING       FAIR      68  54  60 N9        29.91F                  
HOLYOKE        FAIR      66  55  68 NW10      29.91F                  
FORT MORGAN    FAIR      65  51  60 W13       29.96F                  
$$

COZ086-089-092>099-191700-
...SOUTHEAST COLORADO...
  
CITY           SKY/WX    TMP DP  RH WIND       PRES   REMARKS
PUEBLO         FAIR      72  48  42 N7        29.99F                  
LA JUNTA       FAIR      74  50  42 NE8       29.96F                  
LAMAR          FAIR      71  58  63 W10       29.91F                  
SPRINGFIELD      N/A     72  52  49 NW9       29.95F                  
$$